Showing default

HAWK-11C, 62381

Orbit data source: Space-Track

HAWK-11C, 62381 is a payload satellite owned by HawkEye 360 (US) in LEO that was launched on Sat, 21 Dec 2024 UTC via an FALCON 9 launch vehicle from the Air Force Western Test Range (AFWTR). Payload-class satellites include a variety of spacecraft equipped with specific instruments for various scientific and technological missions. These include communications satellites like Starlink; space stations such as the ISS; scientific satellites like the Hubble; Earth observation satellites from companies like Planet Labs, Umbra, and HawkEye 360; GPS; miniature CubeSats for education and research; and military/defense satellites.

Loading next visibility...
Identifier
62381, 2024-247E
Orbit
LEO
Country
Flag of USUS
Related business
Manufacturer
UTIAS-SFL
Mission
Operational Commercial Sigint
Bus & Motor
HAWK2G, Unknown motor
Mass
31 kg wet, 30 kg dry
Launch date (UTC)
2024-12-21 (8 months ago)
Launch vehicle
FALCON 9
Launch site
Air Force Western Test Range (AFWTR)
Object type
Payload
Rocket body
Debris
Shape & HBR
Box + 2 Pan, 0.5 m
Radar Cross Section
0.240 m², Medium (>0.1 m² and < 1m²)

Expand to show TLE details & history
Last TLE update: 1 day ago

TLE from 1 day ago
0 HAWK-11C
1 62381U 24247E   25240.96326442  .00009432  00000-0  38485-3 0  9997
2 62381  44.9956  84.7358 0005052 257.5492 102.4825 15.24739233 38316
Epoch: 2025-08-28T23:07Z
TLE epoch observation values (Epoch: 2025-08-28T23:07:06.045Z)
Latitude
-0.00001°
Longitude
120.54187°
Altitude
492.318 km
Speed
7.62 km/s
True Right ascension
05h 38m 56s
True Declination
0° 00' 00"
Sunlit
Object was in daylight at epoch
Visualization orbit readout
Latitude
Unknown
Longitude
Unknown
Altitude
Unknown
Speed
Unknown
Apparent Right ascension
Unknown
Apparent Declination
Unknown
Sunlit
N/A
Visualization observer readout
Local Sidereal Time
17:00:35
Azimuth
Unknown
Elevation
Unknown
Doppler factor
Unknown
Orbital elements
Apogee altitude
496.648 km
Perigee altitude
489.705 km
Semi-major axis
6,871.314 km
Eccentricity
0.00051
Inclination
44.9956°
RAAN
84.7358°
Arg. of periapsis
257.5492°
True anomaly
102.53902°
Mean anomaly
102.4825°
Eccentric anomaly
102.51076°
Mean motion
3.81051 °/min
Orbital period
94.48 mins
BSTAR
0.00038485
Loading maneuver chart data...
Computing Atmospheric mass density...
Loading historical data...
Loading historical data...
Loading historical data...
Loading historical data...
Loading historical data...
Loading historical data...
Loading historical data...

Documentation

Showing up to 5 results
|